,,PA_Meas_PMT16A,,PR_Meas_QMR101_102,,RH_Meas_QMH101,,SR_Meas_QMS101,,TA_Meas_QMH101,,GenWind,,GenWind,
time,status,PA,status,PR,status,RH,status,SR,status,TA,status,DirAvg,status,SpdAvg,
2012-12-03, 00:00:04,VALID,918.67,VALID,0,VALID,92.0146,VALID,0,VALID,20.4064,VALID,338,VALID,0,
2012-12-03, 00:01:04,VALID,918.704,VALID,0,VALID,91.9994,VALID,0,VALID,20.3869,VALID,338,VALID,0,
2012-12-03, 00:02:04,VALID,918.719,VALID,0,VALID,92.0909,VALID,0,VALID,20.3885,VALID,338,VALID,0,
2012-12-03, 00:03:04,VALID,918.693,VALID,0,VALID,92.2281,VALID,0,VALID,20.3885,VALID,338,VALID,0,
2012-12-03, 00:04:04,VALID,918.709,VALID,0,VALID,92.19,VALID,0,VALID,20.369,VALID,338,VALID,0,
2012-12-03, 00:05:04,VALID,918.71,VALID,0,VALID,92.2662,VALID,0,VALID,20.3284,VALID,338,VALID,0,
2012-12-03, 00:06:04,VALID,918.687,VALID,0,VALID,92.3119,VALID,0,VALID,20.3495,VALID,338,VALID,0,
2012-12-03, 00:07:04,VALID,918.683,VALID,0,VALID,92.3729,VALID,0,VALID,20.369,VALID,338,VALID,0,
2012-12-03, 00:08:04,VALID,918.709,VALID,0,VALID,92.251,VALID,0,VALID,20.3674,VALID,338,VALID,0,
2012-12-03, 00:09:04,VALID,918.703,VALID,0,VALID,92.0604,VALID,0,VALID,20.3464,VALID,338,VALID,0,
2012-12-03, 00:10:04,VALID,918.737,VALID,0,VALID,92.2052,VALID,0,VALID,20.3869,VALID,338,VALID,0,
2012-12-03, 00:11:04,VALID,918.731,VALID,0,VALID,92.4949,VALID,0,VALID,20.3869,VALID,338,VALID,0,
2012-12-03, 00:12:04,VALID,918.763,VALID,0,VALID,92.7312,VALID,0,VALID,20.3479,VALID,338,VALID,0,
2012-12-03, 00:13:04,VALID,918.731,VALID,0,VALID,92.9981,VALID,0,VALID,20.3479,VALID,338,VALID,0,
2012-12-03, 00:14:04,VALID,918.737,VALID,0,VALID,93.1886,VALID,0,VALID,20.2879,VALID,338,VALID,0,
2012-12-03, 00:15:05,VALID,918.745,VALID,0,VALID,93.425,VALID,0,VALID,20.2684,VALID,338,VALID,0,
2012-12-03, 00:16:05,VALID,918.76,VALID,0,VALID,93.5851,VALID,0,VALID,20.2894,VALID,338,VALID,0,
2012-12-03, 00:17:05,VALID,918.755,VALID,0,VALID,93.6079,VALID,0,VALID,20.2504,VALID,338,VALID,0,
2012-12-03, 00:18:05,VALID,918.726,VALID,0,VALID,93.7985,VALID,0,VALID,20.2309,VALID,338,VALID,0,
2012-12-03, 00:19:05,VALID,918.743,VALID,0,VALID,93.9205,VALID,0,VALID,20.2114,VALID,338,VALID,0,
2012-12-03, 00:20:05,VALID,918.719,VALID,0,VALID,94.0501,VALID,0,VALID,20.2114,VALID,338,VALID,0,
2012-12-03, 00:21:05,VALID,918.718,VALID,0,VALID,94.1339,VALID,0,VALID,20.1919,VALID,338,VALID,0,
2012-12-03, 00:22:05,VALID,918.703,VALID,0,VALID,94.2026,VALID,0,VALID,20.2114,VALID,338,VALID,0,
2012-12-03, 00:23:05,VALID,918.678,VALID,0,VALID,94.1873,VALID,0,VALID,20.2129,VALID,338,VALID,0,
2012-12-03, 00:24:05,VALID,918.672,VALID,0,VALID,94.2026,VALID,0,VALID,20.1919,VALID,338,VALID,0,
2012-12-03, 00:25:05,VALID,918.661,VALID,0,VALID,94.0653,VALID,0,VALID,20.1919,VALID,338,VALID,0,
2012-12-03, 00:26:05,VALID,918.644,VALID,0,VALID,93.9205,VALID,0,VALID,20.1919,VALID,338,VALID,0,
2012-12-03, 00:27:05,VALID,918.643,VALID,0,VALID,93.7451,VALID,0,VALID,20.2324,VALID,338,VALID,0,
2012-12-03, 00:28:05,VALID,918.647,VALID,0,VALID,93.6384,VALID,0,VALID,20.2114,VALID,338,VALID,0,
2012-12-03, 00:29:05,VALID,918.66,VALID,0,VALID,93.5317,VALID,0,VALID,20.2129,VALID,338,VALID,0,
2012-12-03, 00:30:05,VALID,918.679,VALID,0,VALID,93.4631,VALID,0,VALID,20.1724,VALID,338,VALID,0,
2012-12-03, 00:31:05,VALID,918.635,VALID,0,VALID,93.3792,VALID,0,VALID,20.1934,VALID,338,VALID,0,
2012-12-03, 00:32:05,VALID,918.648,VALID,0,VALID,93.364,VALID,0,VALID,20.1934,VALID,338,VALID,0,
2012-12-03, 00:33:05,VALID,918.633,VALID,0,VALID,93.303,VALID,0,VALID,20.1934,VALID,338,VALID,0,
2012-12-03, 00:34:05,VALID,918.646,VALID,0,VALID,93.3564,VALID,0,VALID,20.1934,VALID,338,VALID,0,
2012-12-03, 00:35:05,VALID,918.589,VALID,0,VALID,93.425,VALID,0,VALID,20.1919,VALID,338,VALID,0,
2012-12-03, 00:36:05,VALID,918.619,VALID,0,VALID,93.4859,VALID,0,VALID,20.1739,VALID,338,VALID,0,
2012-12-03, 00:37:05,VALID,918.574,VALID,0,VALID,93.5317,VALID,0,VALID,20.1334,VALID,338,VALID,0,
2012-12-03, 00:38:05,VALID,918.616,VALID,0,VALID,93.6079,VALID,0.107441,VALID,20.1318,VALID,338,VALID,0,
2012-12-03, 00:39:05,VALID,918.622,VALID,0,VALID,93.7451,VALID,0,VALID,20.1123,VALID,338,VALID,0,
2012-12-03, 00:40:05,VALID,918.622,VALID,0,VALID,93.7985,VALID,0,VALID,20.0538,VALID,338,VALID,0,
2012-12-03, 00:41:05,VALID,918.634,VALID,0,VALID,93.9052,VALID,0,VALID,20.0343,VALID,338,VALID,0,
2012-12-03, 00:42:05,VALID,918.632,VALID,0,VALID,94.1797,VALID,0,VALID,20.0148,VALID,338,VALID,0,
2012-12-03, 00:43:05,VALID,918.63,VALID,0,VALID,94.3474,VALID,0,VALID,19.9953,VALID,338,VALID,0,
2012-12-03, 00:44:05,VALID,918.603,VALID,0,VALID,94.3855,VALID,0,VALID,19.9953,VALID,338,VALID,0,
2012-12-03, 00:45:05,VALID,918.624,VALID,0,VALID,94.5609,VALID,0,VALID,19.9773,VALID,338,VALID,0,
2012-12-03, 00:46:05,VALID,918.572,VALID,0,VALID,94.7209,VALID,0.107441,VALID,19.9758,VALID,338,VALID,0,
2012-12-03, 00:47:05,VALID,918.574,VALID,0,VALID,94.8277,VALID,0,VALID,19.9563,VALID,338,VALID,0,
2012-12-03, 00:48:05,VALID,918.583,VALID,0,VALID,94.9344,VALID,0,VALID,19.9773,VALID,338,VALID,0,
2012-12-03, 00:49:05,VALID,918.562,VALID,0,VALID,95.0716,VALID,0.107441,VALID,19.9968,VALID,338,VALID,0,
2012-12-03, 00:50:05,VALID,918.567,VALID,0,VALID,95.1479,VALID,0.107441,VALID,19.9758,VALID,338,VALID,0,
2012-12-03, 00:51:05,VALID,918.553,VALID,0,VALID,95.2012,VALID,0,VALID,19.9953,VALID,338,VALID,0,
2012-12-03, 00:52:05,VALID,918.524,VALID,0,VALID,95.186,VALID,0,VALID,20.0163,VALID,338,VALID,0,
2012-12-03, 00:53:05,VALID,918.547,VALID,0,VALID,95.2012,VALID,0,VALID,20.0148,VALID,338,VALID,0,
2012-12-03, 00:54:05,VALID,918.51,VALID,0,VALID,95.1326,VALID,0,VALID,20.0148,VALID,338,VALID,0,
2012-12-03, 00:55:05,VALID,918.513,VALID,0,VALID,95.0716,VALID,0,VALID,20.0148,VALID,338,VALID,0,
2012-12-03, 00:56:05,VALID,918.489,VALID,0,VALID,95.0259,VALID,0,VALID,20.0148,VALID,345,VALID,0,
2012-12-03, 00:57:05,VALID,918.495,VALID,0,VALID,95.0488,VALID,0.107441,VALID,20.0163,VALID,345,VALID,0,
2012-12-03, 00:58:05,VALID,918.462,VALID,0,VALID,95.0716,VALID,0,VALID,20.0163,VALID,345,VALID,0,
2012-12-03, 00:59:05,VALID,918.456,VALID,0,VALID,95.0869,VALID,0,VALID,20.0163,VALID,345,VALID,0,
2012-12-03, 01:00:05,VALID,918.461,VALID,0,VALID,95.0869,VALID,0,VALID,19.9953,VALID,345,VALID,0,
2012-12-03, 01:01:05,VALID,918.454,VALID,0,VALID,95.1021,VALID,0,VALID,20.0163,VALID,345,VALID,0,
2012-12-03, 01:02:05,VALID,918.423,VALID,0,VALID,95.1479,VALID,0,VALID,20.0163,VALID,345,VALID,0,
2012-12-03, 01:03:05,VALID,918.423,VALID,0,VALID,95.1479,VALID,0,VALID,19.9968,VALID,345,VALID,0,
2012-12-03, 01:04:05,VALID,918.396,VALID,0,VALID,95.1097,VALID,0.107441,VALID,19.9563,VALID,345,VALID,0,
2012-12-03, 01:05:05,VALID,918.418,VALID,0,VALID,95.1097,VALID,0,VALID,19.9563,VALID,345,VALID,0,
2012-12-03, 01:06:05,VALID,918.419,VALID,0,VALID,95.003,VALID,0.107441,VALID,19.9383,VALID,345,VALID,0,
2012-12-03, 01:07:05,VALID,918.376,VALID,0,VALID,94.9039,VALID,0,VALID,19.9188,VALID,345,VALID,0,
2012-12-03, 01:08:05,VALID,918.377,VALID,0,VALID,94.8429,VALID,0,VALID,19.9188,VALID,345,VALID,0,
2012-12-03, 01:09:05,VALID,918.334,VALID,0,VALID,94.82,VALID,0.107441,VALID,19.9383,VALID,345,VALID,0,
2012-12-03, 01:10:05,VALID,918.32,VALID,0,VALID,94.5304,VALID,0,VALID,19.9188,VALID,345,VALID,0,
2012-12-03, 01:11:05,VALID,918.292,VALID,0,VALID,94.4236,VALID,0,VALID,19.9383,VALID,345,VALID,0,
2012-12-03, 01:12:05,VALID,918.267,VALID,0,VALID,94.2483,VALID,0,VALID,19.9173,VALID,345,VALID,0,
2012-12-03, 01:13:05,VALID,918.266,VALID,0,VALID,94.1034,VALID,0.107441,VALID,19.9578,VALID,345,VALID,0,
2012-12-03, 01:14:05,VALID,918.233,VALID,0,VALID,93.9967,VALID,0,VALID,19.9578,VALID,345,VALID,0,
2012-12-03, 01:15:05,VALID,918.202,VALID,0,VALID,93.8824,VALID,0,VALID,19.9578,VALID,345,VALID,0,
2012-12-03, 01:16:05,VALID,918.196,VALID,0,VALID,93.7451,VALID,0,VALID,19.9578,VALID,345,VALID,0,
2012-12-03, 01:17:05,VALID,918.182,VALID,0,VALID,93.6384,VALID,0,VALID,19.9563,VALID,345,VALID,0,
2012-12-03, 01:18:05,VALID,918.139,VALID,0,VALID,93.5546,VALID,0,VALID,19.9773,VALID,345,VALID,0,
2012-12-03, 01:19:05,VALID,918.13,VALID,0,VALID,93.5774,VALID,0,VALID,19.9563,VALID,345,VALID,0,
2012-12-03, 01:20:05,VALID,918.088,VALID,0,VALID,93.5012,VALID,0,VALID,19.9578,VALID,345,VALID,0,
2012-12-03, 01:21:05,VALID,918.043,VALID,0,VALID,93.5546,VALID,0,VALID,19.9563,VALID,345,VALID,0,
2012-12-03, 01:22:05,VALID,918.019,VALID,0,VALID,93.5012,VALID,0,VALID,19.9563,VALID,345,VALID,0,
2012-12-03, 01:23:05,VALID,918.019,VALID,0,VALID,93.5088,VALID,0,VALID,19.9383,VALID,345,VALID,0,
2012-12-03, 01:24:05,VALID,917.99,VALID,0,VALID,93.6384,VALID,0.107441,VALID,19.9383,VALID,345,VALID,0,
2012-12-03, 01:25:05,VALID,917.955,VALID,0,VALID,93.7528,VALID,0,VALID,19.8978,VALID,345,VALID,0,
2012-12-03, 01:26:05,VALID,917.95,VALID,0,VALID,93.8366,VALID,0,VALID,19.8783,VALID,345,VALID,0,
2012-12-03, 01:27:05,VALID,917.898,VALID,0,VALID,93.9052,VALID,0,VALID,19.8798,VALID,345,VALID,0,
2012-12-03, 01:28:05,VALID,917.884,VALID,0,VALID,93.951,VALID,0,VALID,19.8603,VALID,345,VALID,0,
2012-12-03, 01:29:05,VALID,917.86,VALID,0,VALID,94.012,VALID,0,VALID,19.8603,VALID,345,VALID,0,
2012-12-03, 01:30:05,VALID,917.856,VALID,0,VALID,94.0043,VALID,0,VALID,19.8408,VALID,345,VALID,0,
2012-12-03, 01:31:05,VALID,917.857,VALID,0,VALID,94.0425,VALID,0,VALID,19.8213,VALID,345,VALID,0,
2012-12-03, 01:32:05,VALID,917.839,VALID,0,VALID,94.0958,VALID,0.107441,VALID,19.8408,VALID,345,VALID,0,
2012-12-03, 01:33:05,VALID,917.863,VALID,0,VALID,94.1568,VALID,0,VALID,19.8408,VALID,345,VALID,0,
2012-12-03, 01:34:05,VALID,917.863,VALID,0,VALID,94.1644,VALID,0,VALID,19.8213,VALID,345,VALID,0,
2012-12-03, 01:35:05,VALID,917.876,VALID,0,VALID,94.1111,VALID,0,VALID,19.8213,VALID,345,VALID,0,
2012-12-03, 01:36:05,VALID,917.882,VALID,0,VALID,94.1263,VALID,0,VALID,19.8213,VALID,345,VALID,0,
2012-12-03, 01:37:05,VALID,917.846,VALID,0,VALID,94.1721,VALID,0,VALID,19.8213,VALID,345,VALID,0,
2012-12-03, 01:38:05,VALID,917.842,VALID,0,VALID,94.2026,VALID,0,VALID,19.7613,VALID,345,VALID,0,
2012-12-03, 01:39:05,VALID,917.826,VALID,0,VALID,94.2407,VALID,0,VALID,19.7628,VALID,345,VALID,0,
2012-12-03, 01:40:05,VALID,917.81,VALID,0,VALID,94.294,VALID,0,VALID,19.7628,VALID,345,VALID,0,
2012-12-03, 01:41:05,VALID,917.781,VALID,0,VALID,94.4236,VALID,0,VALID,19.7238,VALID,345,VALID,0,
2012-12-03, 01:42:05,VALID,917.76,VALID,0,VALID,94.5456,VALID,0.107441,VALID,19.6848,VALID,345,VALID,0,
2012-12-03, 01:43:05,VALID,917.713,VALID,0,VALID,94.66,VALID,0.107441,VALID,19.6248,VALID,345,VALID,0,
2012-12-03, 01:44:05,VALID,917.696,VALID,0,VALID,94.7591,VALID,0.107441,VALID,19.6458,VALID,345,VALID,0,
2012-12-03, 01:45:05,VALID,917.701,VALID,0,VALID,94.8658,VALID,0,VALID,19.6458,VALID,345,VALID,0,
2012-12-03, 01:46:05,VALID,917.675,VALID,0,VALID,94.9039,VALID,0,VALID,19.6263,VALID,345,VALID,0,
2012-12-03, 01:47:05,VALID,917.665,VALID,0,VALID,94.942,VALID,0.107441,VALID,19.6263,VALID,345,VALID,0,
2012-12-03, 01:48:05,VALID,917.646,VALID,0,VALID,94.9878,VALID,0,VALID,19.6263,VALID,345,VALID,0,
2012-12-03, 01:49:05,VALID,917.64,VALID,0,VALID,95.0259,VALID,0,VALID,19.6263,VALID,345,VALID,0,
2012-12-03, 01:50:05,VALID,917.63,VALID,0,VALID,95.0411,VALID,0,VALID,19.6068,VALID,345,VALID,0,
2012-12-03, 01:51:05,VALID,917.636,VALID,0,VALID,95.0945,VALID,0,VALID,19.6068,VALID,345,VALID,0,
2012-12-03, 01:52:05,VALID,917.608,VALID,0,VALID,95.125,VALID,0,VALID,19.6068,VALID,345,VALID,0,
2012-12-03, 01:53:05,VALID,917.589,VALID,0,VALID,95.1402,VALID,0,VALID,19.5663,VALID,345,VALID,0,
2012-12-03, 01:54:05,VALID,917.565,VALID,0,VALID,95.125,VALID,0,VALID,19.5663,VALID,345,VALID,0,
2012-12-03, 01:55:05,VALID,917.558,VALID,0,VALID,94.8734,VALID,0.107441,VALID,19.5273,VALID,345,VALID,0,
2012-12-03, 01:56:05,VALID,917.514,VALID,0,VALID,94.7972,VALID,0,VALID,19.4898,VALID,345,VALID,0,
2012-12-03, 01:57:05,VALID,917.509,VALID,0,VALID,94.8658,VALID,0,VALID,19.4703,VALID,345,VALID,0,
2012-12-03, 01:58:05,VALID,917.482,VALID,0,VALID,94.9649,VALID,0,VALID,19.4313,VALID,345,VALID,0,
2012-12-03, 01:59:05,VALID,917.463,VALID,0,VALID,95.1479,VALID,0,VALID,19.4118,VALID,345,VALID,0,
2012-12-03, 02:00:05,VALID,917.434,VALID,0,VALID,95.3232,VALID,0,VALID,19.3713,VALID,345,VALID,0,
2012-12-03, 02:01:05,VALID,917.45,VALID,0,VALID,95.4452,VALID,0,VALID,19.3923,VALID,345,VALID,0,
2012-12-03, 02:02:05,VALID,917.444,VALID,0,VALID,95.6967,VALID,0,VALID,19.4313,VALID,345,VALID,0,
2012-12-03, 02:03:05,VALID,917.432,VALID,0,VALID,95.8645,VALID,0,VALID,19.4313,VALID,345,VALID,0,
2012-12-03, 02:04:05,VALID,917.411,VALID,0,VALID,95.9254,VALID,0,VALID,19.4103,VALID,345,VALID,0,
2012-12-03, 02:05:05,VALID,917.399,VALID,0,VALID,96.0474,VALID,0,VALID,19.4313,VALID,344,VALID,0,
2012-12-03, 02:06:05,VALID,917.412,VALID,0,VALID,96.1084,VALID,0,VALID,19.4508,VALID,340,VALID,0,
2012-12-03, 02:07:05,VALID,917.364,VALID,0,VALID,96.1999,VALID,0,VALID,19.4508,VALID,340,VALID,0,
2012-12-03, 02:08:05,VALID,917.369,VALID,0,VALID,96.2533,VALID,0,VALID,19.4508,VALID,340,VALID,0,
2012-12-03, 02:09:05,VALID,917.372,VALID,0,VALID,96.3066,VALID,0,VALID,19.4508,VALID,340,VALID,0,
2012-12-03, 02:10:05,VALID,917.371,VALID,0,VALID,96.3676,VALID,0,VALID,19.4508,VALID,340,VALID,0,
2012-12-03, 02:11:05,VALID,917.348,VALID,0,VALID,96.3981,VALID,0,VALID,19.4703,VALID,340,VALID,0,
2012-12-03, 02:12:05,VALID,917.343,VALID,0,VALID,96.4667,VALID,0,VALID,19.4508,VALID,340,VALID,0,
2012-12-03, 02:13:05,VALID,917.308,VALID,0,VALID,96.4743,VALID,0,VALID,19.4508,VALID,340,VALID,0,
2012-12-03, 02:14:05,VALID,917.329,VALID,0,VALID,96.4286,VALID,0,VALID,19.4523,VALID,340,VALID,0,
2012-12-03, 02:15:05,VALID,917.31,VALID,0,VALID,96.4667,VALID,0,VALID,19.4118,VALID,353,VALID,0,
2012-12-03, 02:16:05,VALID,917.279,VALID,0,VALID,96.5048,VALID,0,VALID,19.3923,VALID,354,VALID,0,
2012-12-03, 02:17:05,VALID,917.317,VALID,0,VALID,96.5201,VALID,0,VALID,19.3923,VALID,354,VALID,0,
2012-12-03, 02:18:05,VALID,917.295,VALID,0,VALID,96.5048,VALID,0,VALID,19.3728,VALID,354,VALID,0,
2012-12-03, 02:19:05,VALID,917.322,VALID,0,VALID,96.5429,VALID,0,VALID,19.3923,VALID,354,VALID,0,
2012-12-03, 02:20:05,VALID,917.288,VALID,0,VALID,96.5887,VALID,0,VALID,19.3728,VALID,354,VALID,0,
2012-12-03, 02:21:05,VALID,917.295,VALID,0,VALID,96.6344,VALID,0,VALID,19.3728,VALID,354,VALID,0,
2012-12-03, 02:22:05,VALID,917.296,VALID,0,VALID,96.6573,VALID,0,VALID,19.3728,VALID,354,VALID,0,
2012-12-03, 02:23:05,VALID,917.267,VALID,0,VALID,96.703,VALID,0.107441,VALID,19.3923,VALID,354,VALID,0,
2012-12-03, 02:24:05,VALID,917.28,VALID,0,VALID,96.7335,VALID,0,VALID,19.4118,VALID,354,VALID,0,
2012-12-03, 02:25:05,VALID,917.275,VALID,0,VALID,96.7488,VALID,0,VALID,19.3923,VALID,354,VALID,0,
2012-12-03, 02:26:05,VALID,917.248,VALID,0,VALID,96.764,VALID,0,VALID,19.4118,VALID,354,VALID,0,
2012-12-03, 02:27:05,VALID,917.229,VALID,0,VALID,96.7945,VALID,0,VALID,19.3923,VALID,354,VALID,0,
2012-12-03, 02:28:05,VALID,917.216,VALID,0,VALID,96.7869,VALID,0.107441,VALID,19.3923,VALID,354,VALID,0,
2012-12-03, 02:29:05,VALID,917.232,VALID,0,VALID,96.7945,VALID,0,VALID,19.3923,VALID,354,VALID,0,
2012-12-03, 02:30:05,VALID,917.223,VALID,0,VALID,96.825,VALID,0,VALID,19.3923,VALID,354,VALID,0,
2012-12-03, 02:31:05,VALID,917.217,VALID,0,VALID,96.8326,VALID,0,VALID,19.3923,VALID,354,VALID,0,
2012-12-03, 02:32:05,VALID,917.231,VALID,0,VALID,96.8784,VALID,0,VALID,19.4118,VALID,354,VALID,0,
2012-12-03, 02:33:05,VALID,917.227,VALID,0,VALID,96.8707,VALID,0.107441,VALID,19.4118,VALID,354,VALID,0,
2012-12-03, 02:34:05,VALID,917.226,VALID,0,VALID,96.886,VALID,0,VALID,19.4508,VALID,354,VALID,0,
2012-12-03, 02:35:05,VALID,917.211,VALID,0,VALID,96.9165,VALID,0.107441,VALID,19.4313,VALID,354,VALID,0,
2012-12-03, 02:36:05,VALID,917.204,VALID,0,VALID,96.9165,VALID,0.107441,VALID,19.4313,VALID,354,VALID,0,
2012-12-03, 02:37:05,VALID,917.18,VALID,0,VALID,96.9394,VALID,0,VALID,19.4313,VALID,354,VALID,0,
2012-12-03, 02:38:05,VALID,917.204,VALID,0,VALID,96.9394,VALID,0,VALID,19.4508,VALID,354,VALID,0,
2012-12-03, 02:39:05,VALID,917.178,VALID,0,VALID,96.947,VALID,0,VALID,19.4313,VALID,354,VALID,0,
2012-12-03, 02:40:05,VALID,917.17,VALID,0,VALID,96.9317,VALID,0,VALID,19.4118,VALID,354,VALID,0,
2012-12-03, 02:41:05,VALID,917.129,VALID,0,VALID,96.9394,VALID,0,VALID,19.4508,VALID,354,VALID,0,
2012-12-03, 02:42:05,VALID,917.141,VALID,0,VALID,96.9546,VALID,0,VALID,19.4118,VALID,354,VALID,0,
2012-12-03, 02:43:05,VALID,917.175,VALID,0,VALID,96.9622,VALID,0,VALID,19.3923,VALID,354,VALID,0,
2012-12-03, 02:44:05,VALID,917.156,VALID,0,VALID,96.947,VALID,0,VALID,19.3908,VALID,354,VALID,0,
2012-12-03, 02:45:05,VALID,917.121,VALID,0,VALID,96.9698,VALID,0,VALID,19.4118,VALID,354,VALID,0,
2012-12-03, 02:46:05,VALID,917.111,VALID,0,VALID,96.9775,VALID,0,VALID,19.4118,VALID,354,VALID,0,
2012-12-03, 02:47:05,VALID,917.123,VALID,0,VALID,97.0003,VALID,0,VALID,19.4118,VALID,354,VALID,0,
2012-12-03, 02:48:05,VALID,917.115,VALID,0,VALID,96.9851,VALID,0.107441,VALID,19.3908,VALID,354,VALID,0,
2012-12-03, 02:49:05,VALID,917.09,VALID,0,VALID,96.9775,VALID,0.107441,VALID,19.3923,VALID,354,VALID,0,
2012-12-03, 02:50:05,VALID,917.104,VALID,0,VALID,97.0003,VALID,0,VALID,19.3713,VALID,354,VALID,0,
2012-12-03, 02:51:05,VALID,917.062,VALID,0,VALID,96.9927,VALID,0.107441,VALID,19.3908,VALID,354,VALID,0,
2012-12-03, 02:52:05,VALID,917.081,VALID,0,VALID,96.9775,VALID,0,VALID,19.4118,VALID,354,VALID,0,
2012-12-03, 02:53:05,VALID,917.033,VALID,0,VALID,96.9927,VALID,0,VALID,19.3923,VALID,354,VALID,0,
2012-12-03, 02:54:05,VALID,917.08,VALID,0,VALID,97.008,VALID,0.107441,VALID,19.4118,VALID,354,VALID,0,
2012-12-03, 02:55:05,VALID,917.043,VALID,0,VALID,97.008,VALID,0,VALID,19.4313,VALID,354,VALID,0,
2012-12-03, 02:56:04,VALID,917.002,VALID,0,VALID,97.008,VALID,0,VALID,19.4313,VALID,354,VALID,0,
2012-12-03, 02:57:04,VALID,917.017,VALID,0,VALID,97.008,VALID,0,VALID,19.4313,VALID,354,VALID,0,
2012-12-03, 02:58:04,VALID,916.993,VALID,0,VALID,97.0156,VALID,0,VALID,19.3908,VALID,354,VALID,0,
2012-12-03, 02:59:04,VALID,916.978,VALID,0,VALID,97.008,VALID,0,VALID,19.3923,VALID,354,VALID,0,
2012-12-03, 03:00:04,VALID,916.956,VALID,0,VALID,96.9851,VALID,0,VALID,19.3728,VALID,354,VALID,0,
2012-12-03, 03:01:04,VALID,916.917,VALID,0,VALID,96.9851,VALID,0,VALID,19.4118,VALID,354,VALID,0,
2012-12-03, 03:02:04,VALID,916.883,VALID,0,VALID,96.9927,VALID,0,VALID,19.3923,VALID,354,VALID,0,
2012-12-03, 03:03:04,VALID,916.875,VALID,0,VALID,96.9698,VALID,0.107441,VALID,19.3923,VALID,354,VALID,0,
2012-12-03, 03:04:04,VALID,916.847,VALID,0,VALID,96.9622,VALID,0,VALID,19.3728,VALID,354,VALID,0,
2012-12-03, 03:05:04,VALID,916.824,VALID,0,VALID,96.9394,VALID,0,VALID,19.3533,VALID,354,VALID,0,
2012-12-03, 03:06:04,VALID,916.774,VALID,0,VALID,96.947,VALID,0.107441,VALID,19.3518,VALID,354,VALID,0,
2012-12-03, 03:07:04,VALID,916.747,VALID,0,VALID,96.947,VALID,0.107441,VALID,19.3923,VALID,354,VALID,0,
2012-12-03, 03:08:04,VALID,916.723,VALID,0,VALID,96.9698,VALID,0,VALID,19.4118,VALID,354,VALID,0,
2012-12-03, 03:09:04,VALID,916.734,VALID,0,VALID,96.9622,VALID,0,VALID,19.4508,VALID,354,VALID,0,
2012-12-03, 03:10:04,VALID,916.719,VALID,0,VALID,96.9775,VALID,0,VALID,19.4703,VALID,354,VALID,0,
2012-12-03, 03:11:04,VALID,916.69,VALID,0,VALID,96.9698,VALID,0,VALID,19.4703,VALID,354,VALID,0,
2012-12-03, 03:12:04,VALID,916.692,VALID,0,VALID,96.9622,VALID,0.107441,VALID,19.4898,VALID,354,VALID,0,
2012-12-03, 03:13:04,VALID,916.664,VALID,0,VALID,96.947,VALID,0.107441,VALID,19.5093,VALID,354,VALID,0,
2012-12-03, 03:14:04,VALID,916.626,VALID,0,VALID,96.9851,VALID,0,VALID,19.5093,VALID,354,VALID,0,
2012-12-03, 03:15:04,VALID,916.607,VALID,0,VALID,96.947,VALID,0,VALID,19.4703,VALID,354,VALID,0,
2012-12-03, 03:16:04,VALID,916.644,VALID,0,VALID,96.8555,VALID,0,VALID,19.4118,VALID,354,VALID,0,
2012-12-03, 03:17:04,VALID,916.624,VALID,0,VALID,96.8021,VALID,0,VALID,19.3728,VALID,354,VALID,0,
2012-12-03, 03:18:04,VALID,916.587,VALID,0,VALID,96.7488,VALID,0,VALID,19.3143,VALID,354,VALID,0,
2012-12-03, 03:19:04,VALID,916.583,VALID,0,VALID,96.7259,VALID,0,VALID,19.2753,VALID,354,VALID,0,
2012-12-03, 03:20:04,VALID,916.589,VALID,0,VALID,96.7259,VALID,0,VALID,19.2558,VALID,354,VALID,0,
2012-12-03, 03:21:04,VALID,916.577,VALID,0,VALID,96.7716,VALID,0,VALID,19.2753,VALID,354,VALID,0,
2012-12-03, 03:22:04,VALID,916.583,VALID,0,VALID,96.8021,VALID,0,VALID,19.2753,VALID,354,VALID,0,
2012-12-03, 03:23:04,VALID,916.58,VALID,0,VALID,96.8326,VALID,0,VALID,19.2948,VALID,354,VALID,0,
2012-12-03, 03:24:04,VALID,916.55,VALID,0,VALID,96.8326,VALID,0,VALID,19.2753,VALID,354,VALID,0,
2012-12-03, 03:25:04,VALID,916.587,VALID,0,VALID,96.8479,VALID,0,VALID,19.2753,VALID,354,VALID,0,
2012-12-03, 03:26:04,VALID,916.557,VALID,0,VALID,96.8403,VALID,0,VALID,19.2753,VALID,354,VALID,0,
2012-12-03, 03:27:04,VALID,916.584,VALID,0,VALID,96.825,VALID,0,VALID,19.2767,VALID,354,VALID,0,
2012-12-03, 03:28:04,VALID,916.58,VALID,0,VALID,96.8021,VALID,0,VALID,19.2363,VALID,354,VALID,0,
2012-12-03, 03:29:04,VALID,916.6,VALID,0,VALID,96.7716,VALID,0,VALID,19.2363,VALID,354,VALID,0,
2012-12-03, 03:30:04,VALID,916.569,VALID,0,VALID,96.7716,VALID,0,VALID,19.2572,VALID,354,VALID,0,
2012-12-03, 03:31:04,VALID,916.61,VALID,0,VALID,96.7411,VALID,0,VALID,19.2363,VALID,354,VALID,0,
2012-12-03, 03:32:04,VALID,916.6,VALID,0,VALID,96.6954,VALID,0,VALID,19.2363,VALID,354,VALID,0,
2012-12-03, 03:33:04,VALID,916.613,VALID,0,VALID,96.6725,VALID,0,VALID,19.1973,VALID,354,VALID,0,
2012-12-03, 03:34:04,VALID,916.61,VALID,0,VALID,96.6344,VALID,0,VALID,19.1973,VALID,354,VALID,0,
2012-12-03, 03:35:04,VALID,916.612,VALID,0,VALID,96.6192,VALID,0,VALID,19.1778,VALID,354,VALID,0,
2012-12-03, 03:36:04,VALID,916.641,VALID,0,VALID,96.5506,VALID,0.107441,VALID,19.1388,VALID,354,VALID,0,
2012-12-03, 03:37:04,VALID,916.635,VALID,0,VALID,96.5734,VALID,0,VALID,19.1388,VALID,354,VALID,0,
2012-12-03, 03:38:04,VALID,916.655,VALID,0,VALID,96.4972,VALID,0,VALID,19.1193,VALID,354,VALID,0,
2012-12-03, 03:39:04,VALID,916.646,VALID,0,VALID,96.4133,VALID,0,VALID,19.0998,VALID,354,VALID,0,
2012-12-03, 03:40:04,VALID,916.668,VALID,0,VALID,96.3066,VALID,0,VALID,19.0608,VALID,354,VALID,0,
2012-12-03, 03:41:04,VALID,916.645,VALID,0,VALID,96.2228,VALID,0,VALID,19.0023,VALID,354,VALID,0,
2012-12-03, 03:42:04,VALID,916.655,VALID,0,VALID,96.2228,VALID,0,VALID,18.9633,VALID,354,VALID,0,
2012-12-03, 03:43:04,VALID,916.631,VALID,0,VALID,96.2914,VALID,0,VALID,18.9452,VALID,354,VALID,0,
2012-12-03, 03:44:04,VALID,916.628,VALID,0,VALID,96.4896,VALID,0,VALID,18.9438,VALID,354,VALID,0,
2012-12-03, 03:45:04,VALID,916.623,VALID,0,VALID,96.5353,VALID,0,VALID,19.0037,VALID,354,VALID,0,
2012-12-03, 03:46:04,VALID,916.616,VALID,0,VALID,96.4896,VALID,0.107441,VALID,19.0023,VALID,354,VALID,0,
2012-12-03, 03:47:04,VALID,916.632,VALID,0,VALID,96.3905,VALID,0,VALID,18.9828,VALID,354,VALID,0,
2012-12-03, 03:48:04,VALID,916.61,VALID,0,VALID,96.3676,VALID,0,VALID,18.9828,VALID,354,VALID,0,
2012-12-03, 03:49:04,VALID,916.569,VALID,0,VALID,96.2685,VALID,0,VALID,19.0023,VALID,354,VALID,0,
2012-12-03, 03:50:04,VALID,916.542,VALID,0,VALID,96.1084,VALID,0,VALID,18.9438,VALID,354,VALID,0,
2012-12-03, 03:51:04,VALID,916.52,VALID,0,VALID,96.0093,VALID,0,VALID,18.9048,VALID,354,VALID,0,
2012-12-03, 03:52:04,VALID,916.533,VALID,0,VALID,96.1084,VALID,0,VALID,18.8658,VALID,354,VALID,0,
2012-12-03, 03:53:04,VALID,916.508,VALID,0,VALID,96.3219,VALID,0,VALID,18.8853,VALID,354,VALID,0,
2012-12-03, 03:54:04,VALID,916.493,VALID,0,VALID,96.4133,VALID,0,VALID,18.9062,VALID,354,VALID,0,
2012-12-03, 03:55:04,VALID,916.506,VALID,0,VALID,96.4438,VALID,0,VALID,18.9048,VALID,354,VALID,0,
2012-12-03, 03:56:04,VALID,916.505,VALID,0,VALID,96.4743,VALID,0,VALID,18.9048,VALID,354,VALID,0,
2012-12-03, 03:57:04,VALID,916.49,VALID,0,VALID,96.4972,VALID,0,VALID,18.9243,VALID,354,VALID,0,